Location: Costa Mesa
(33.6411°N, 117.9187°W)
Time: 23:29:32
(UTC+00:00)

Cosmos 1758 Rocket - Pass Details

Date: 10 September 2024
Orbit: 597 x 632 km, 82.5° (Epoch: 09 October)

Event Time Altitude Azimuth Distance (km) Brightness Sun altitude
Rises 12:19:16 0° 342° (NNW) 2,897 7.0 -15.7°
Reaches altitude 10° 12:21:40 10° 333° (NNW) 1,981 6.0 -15.2°
Maximum altitude 12:25:35 33° 269° (W) 1,040 4.2 -14.4°
Drops below altitude 10° 12:29:27 10° 206° (SSW) 1,949 5.7 -13.6°
Enters shadow 12:30:32 - 200° (SSW) 2,357 6.2 -13.4°
